Location: Newark
(37.7892°N, 97.1083°W)
Time: 02:53:19
(UTC+00:00)

LightSail 2 - Visible Passes

Search period start: 22 January 2021 00:00
Search period end: 01 February 2021 00:00
Orbit: 684 x 713 km, 24.0° (Epoch: 21 January)

Date Brightness Start Highest point End Pass type
(mag) Time Alt. Az. Time Alt. Az. Time Alt. Az.
22 Jan 7.9 12:46:33 10° S 12:47:32 11° SSE 12:48:32 10° SSE visible
24 Jan 7.6 12:25:02 10° SSW 12:27:19 13° S 12:29:35 10° SE visible
25 Jan 7.6 11:23:53 10° S 11:25:01 11° SSE 11:26:08 10° SSE visible
25 Jan 7.4 13:06:21 10° SW 13:09:22 16° S 13:12:25 10° SE visible
26 Jan 7.4 12:04:15 10° SSW 12:07:03 15° S 12:09:51 10° SE visible
27 Jan 7.5 11:04:53 13° SSE 11:04:53 13° SSE 11:07:01 10° SE visible
27 Jan 7.3 12:46:03 10° SW 12:49:05 16° S 12:52:10 10° SE visible
28 Jan 7.2 11:44:53 13° SSW 11:46:44 16° S 11:49:45 10° SE visible
29 Jan 7.6 10:46:09 13° SSE 10:46:09 13° SSE 10:47:11 10° SE visible
29 Jan 7.3 12:25:53 10° SW 12:28:45 15° S 12:31:39 10° SSE visible
30 Jan 7.1 11:26:04 16° S 11:26:22 16° S 11:29:24 10° SE visible
31 Jan 7.3 12:05:56 10° SW 12:08:21 14° S 12:10:48 10° SSE visible
